OPS 9794 (NAVSTAR 8)

Satellite information

Favourite Embed

Satellite Type and Status

PAYLOADIN ORBIT

Key statistics

Satellite OPS 9794 (NAVSTAR 8) at a glance.

Uptime

15494

Days in orbit

Revolutions

≈ 1.9

Per day

Orbit

MEO

Medium Earth Orbit

Inclination

63.3

Latest

Satellite identification and parameters

Extended collection of information and parameters for OPS 9794 (NAVSTAR 8).

Object identification

Identified? True

Debris? False

Object name: OPS 9794 (NAVSTAR 8)

International designator: 1983-072A

Object number (NORAD): 14189

Object ID (CCSDS): 14189

Country: UNITED STATES OF AMERICA (US)

Current information (Y/N): Y

RCS size: MEDIUM

Orbital parameters

Period: 751.098 minutes

Inclination: 63.3008 deg

SMA: 27371.034 km

Apoapsis: 21591.678 km

Periapsis: 20394.12 km

RAAN: 74.2301 deg

Eccentricy: 0.02187637

Argument of periapsis: 55.9596 deg

Mean anomaly: 306.2819 deg

Mean motion: 1.91719354 rev/day

Mean motion (dot): -0.00000059 rev/day2

B* drag term: 0.0 1/REarth

Two-line elements (TLE)

Creation date: Dec. 13, 2025, 4:32 a.m.

Reference frame: TEME

Reference center: EARTH

Epoch: Dec. 12, 2025, 6:53 p.m. UTC

TLE line 0: 0 OPS 9794 (NAVSTAR 8)

TLE line 1: 1 14189U 83072A 25346.78725241 -.00000059 00000-0 00000-0 0 9994

TLE line 2: 2 14189 63.3008 74.2301 0218764 55.9596 306.2819 1.91719354223151

Live tracking on map

Real-time ground track for satellite OPS 9794 (NAVSTAR 8).

In-orbit conjunctions

There are no conjunctions computed for OPS 9794 (NAVSTAR 8), at the moment. Check back to stay up to date, as we update our databases every day.

Go to all conjunctions

Associated space launch

First generation GPS satellite

OPS 9794 (NAVSTAR 8) was lifted into orbit during the mission ‘Atlas E/SGS-2 | GPS 8’, on board a Atlas E/SGS-2 space rocket.

The launch took place on July 14, 1983, 10:21 a.m. from Space Launch Complex 3W.

For more information about the launch, click the button.

Launch to space Atlas E/SGS-2 | GPS 8
Atlas E/SGS-2 | GPS 8

Agency: N/A

Status: Launch Successful

Launch date: July 14, 1983, 10:21 a.m. UTC

Rocket: Atlas E/SGS-2

Launch pad: Space Launch Complex 3W

Location: Vandenberg SFB, CA, USA

...

Latest news about this satellite

There are no fresh news available about this satellite. Check back as we update our databases every day.


Newsletter sign-up

Weekly statistics, charts and insights to help you stay on top of the space industry.